Time,TemperatureF,DewpointF,PressureIn,WindDirection,WindDirectionDegrees,WindSpeedMPH,WindSpeedGustMPH,Humidity,HourlyPrecipIn,Conditions,Clouds,dailyrainin,SoftwareType,DateUTC
2013-11-02 00:01:00,38.3,34.8,29.82,West,267,0.0,0.0,87,0.00,,OVC035,0.00,VWS V14.01,2013-11-02 05:01:00,
2013-11-02 00:06:00,38.4,34.9,29.83,West,280,0.0,1.0,87,0.00,,OVC035,0.00,VWS V14.01,2013-11-02 05:06:00,
2013-11-02 00:11:00,38.5,35.0,29.82,WSW,255,1.0,1.0,87,0.00,,OVC035,0.00,VWS V14.01,2013-11-02 05:11:00,
2013-11-02 00:16:00,38.5,35.0,29.83,WSW,250,2.0,2.0,87,0.00,,OVC050,0.00,VWS V14.01,2013-11-02 05:16:00,
2013-11-02 00:21:00,38.5,35.0,29.83,West,264,0.0,2.0,87,0.00,,OVC035,0.00,VWS V14.01,2013-11-02 05:21:00,
2013-11-02 00:26:00,38.5,35.0,29.83,WSW,256,3.0,3.0,87,0.00,,OVC035,0.00,VWS V14.01,2013-11-02 05:26:00,
2013-11-02 00:31:00,38.6,35.1,29.83,West,281,2.0,4.0,87,0.00,,OVC035,0.00,VWS V14.01,2013-11-02 05:31:00,
2013-11-02 00:36:00,38.7,35.2,29.83,West,266,1.0,4.0,87,0.00,,OVC035,0.00,VWS V14.01,2013-11-02 05:36:00,
2013-11-02 00:41:00,38.7,35.2,29.83,WNW,287,1.0,4.0,87,0.00,,OVC035,0.00,VWS V14.01,2013-11-02 05:41:00,
2013-11-02 00:46:00,38.8,35.3,29.83,West,281,1.0,4.0,87,0.00,,OVC035,0.00,VWS V14.01,2013-11-02 05:46:00,
2013-11-02 00:51:00,38.8,35.3,29.83,West,271,2.0,4.0,87,0.00,,OVC035,0.00,VWS V14.01,2013-11-02 05:51:00,
2013-11-02 00:56:00,39.0,35.2,29.83,West,275,1.0,4.0,86,0.00,,OVC035,0.00,VWS V14.01,2013-11-02 05:56:00,
2013-11-02 01:01:00,39.1,35.3,29.83,West,274,3.0,5.0,86,0.00,,OVC035,0.00,VWS V14.01,2013-11-02 06:01:00,
2013-11-02 01:06:00,39.1,35.3,29.84,West,267,2.0,5.0,86,0.00,,OVC035,0.00,VWS V14.01,2013-11-02 06:06:00,
2013-11-02 01:11:00,39.2,35.4,29.84,West,276,0.0,5.0,86,0.00,,OVC035,0.00,VWS V14.01,2013-11-02 06:11:00,
2013-11-02 01:16:00,39.3,35.5,29.84,West,277,2.0,5.0,86,0.00,,OVC035,0.00,VWS V14.01,2013-11-02 06:16:00,
2013-11-02 01:21:00,39.4,35.6,29.84,West,281,0.0,5.0,86,0.00,,OVC035,0.00,VWS V14.01,2013-11-02 06:21:00,
2013-11-02 01:26:00,39.5,35.7,29.84,WSW,252,1.0,5.0,86,0.00,,OVC035,0.00,VWS V14.01,2013-11-02 06:26:00,
2013-11-02 01:31:00,39.5,35.4,29.84,WNW,291,1.0,1.0,85,0.00,,OVC035,0.00,VWS V14.01,2013-11-02 06:31:00,
2013-11-02 01:36:00,39.6,35.8,29.84,West,276,1.0,2.0,86,0.00,,OVC037,0.00,VWS V14.01,2013-11-02 06:36:00,
2013-11-02 01:41:00,39.6,35.8,29.85,WNW,295,0.0,3.0,86,0.00,,OVC037,0.00,VWS V14.01,2013-11-02 06:41:00,
2013-11-02 01:46:00,39.6,35.8,29.85,West,271,0.0,3.0,86,0.00,,OVC037,0.00,VWS V14.01,2013-11-02 06:46:00,
2013-11-02 01:51:00,39.6,35.8,29.85,WNW,294,2.0,3.0,86,0.00,,SCT100,0.00,VWS V14.01,2013-11-02 06:51:00,
2013-11-02 01:56:00,39.6,35.5,29.85,WNW,297,1.0,4.0,85,0.00,,OVC035,0.00,VWS V14.01,2013-11-02 06:56:00,
2013-11-02 02:01:00,39.5,35.4,29.86,NW,308,0.0,2.0,85,0.00,,SCT100,0.00,VWS V14.01,2013-11-02 07:01:00,
2013-11-02 02:06:00,39.5,35.4,29.86,WNW,285,1.0,4.0,85,0.00,,SCT100,0.00,VWS V14.01,2013-11-02 07:06:00,
2013-11-02 02:11:00,39.5,35.1,29.86,ENE,72,3.0,4.0,84,0.00,,SCT100,0.00,VWS V14.01,2013-11-02 07:11:00,
2013-11-02 02:16:00,39.3,34.6,29.86,NNE,19,1.0,4.0,83,0.00,,OVC035,0.00,VWS V14.01,2013-11-02 07:16:00,
2013-11-02 02:21:00,39.2,33.9,29.86,West,275,2.0,9.0,81,0.00,,SCT100,0.00,VWS V14.01,2013-11-02 07:21:00,
2013-11-02 02:26:00,39.1,33.8,29.87,WNW,284,2.0,9.0,81,0.00,,SCT100,0.00,VWS V14.01,2013-11-02 07:26:00,
2013-11-02 02:31:00,38.9,33.3,29.87,West,280,2.0,5.0,80,0.00,,BKN110,0.00,VWS V14.01,2013-11-02 07:31:00,
2013-11-02 02:36:00,38.8,33.2,29.87,WNW,302,3.0,6.0,80,0.00,,OVC024,0.00,VWS V14.01,2013-11-02 07:36:00,
2013-11-02 02:41:00,38.8,33.2,29.88,NNW,330,1.0,8.0,80,0.00,,OVC024,0.00,VWS V14.01,2013-11-02 07:41:00,
2013-11-02 02:46:00,38.6,32.7,29.88,NW,325,0.0,8.0,79,0.00,,OVC024,0.00,VWS V14.01,2013-11-02 07:46:00,
2013-11-02 02:51:00,38.3,31.7,29.88,NW,308,2.0,8.0,77,0.00,,OVC028,0.00,VWS V14.01,2013-11-02 07:51:00,
2013-11-02 02:56:00,38.2,31.3,29.88,West,273,0.0,8.0,76,0.00,,OVC028,0.00,VWS V14.01,2013-11-02 07:56:00,
2013-11-02 03:01:00,38.0,31.1,29.88,NW,309,0.0,5.0,76,0.00,,OVC028,0.00,VWS V14.01,2013-11-02 08:01:00,
2013-11-02 03:06:00,37.9,31.0,29.88,North,6,0.0,5.0,76,0.00,,OVC028,0.00,VWS V14.01,2013-11-02 08:06:00,
2013-11-02 03:11:00,37.8,30.6,29.89,WNW,302,1.0,5.0,75,0.00,,OVC028,0.00,VWS V14.01,2013-11-02 08:11:00,
2013-11-02 03:16:00,37.7,30.5,29.89,West,275,0.0,6.0,75,0.00,,OVC028,0.00,VWS V14.01,2013-11-02 08:16:00,
2013-11-02 03:21:00,37.5,30.3,29.89,West,264,1.0,6.0,75,0.00,,OVC028,0.00,VWS V14.01,2013-11-02 08:21:00,
2013-11-02 03:26:00,37.2,30.0,29.89,West,264,0.0,6.0,75,0.00,,OVC028,0.00,VWS V14.01,2013-11-02 08:26:00,
2013-11-02 03:31:00,36.8,29.6,29.89,North,5,1.0,2.0,75,0.00,,OVC028,0.00,VWS V14.01,2013-11-02 08:31:00,
2013-11-02 03:36:00,36.4,29.6,29.89,West,264,0.0,2.0,76,0.00,,SCT030,0.00,VWS V14.01,2013-11-02 08:36:00,
2013-11-02 03:41:00,36.3,29.5,29.89,West,269,0.0,5.0,76,0.00,,SCT030,0.00,VWS V14.01,2013-11-02 08:41:00,
2013-11-02 03:46:00,36.0,29.5,29.89,NW,319,0.0,5.0,77,0.00,,SCT030,0.00,VWS V14.01,2013-11-02 08:46:00,
2013-11-02 03:51:00,35.8,29.6,29.89,NW,317,1.0,5.0,78,0.00,,SCT030,0.00,VWS V14.01,2013-11-02 08:51:00,
2013-11-02 03:56:00,35.6,29.4,29.89,NNW,331,0.0,5.0,78,0.00,,SCT030,0.00,VWS V14.01,2013-11-02 08:56:00,
2013-11-02 04:01:00,35.6,29.4,29.89,SSW,208,0.0,1.0,78,0.00,,SCT030,0.00,VWS V14.01,2013-11-02 09:01:00,
2013-11-02 04:06:00,35.7,29.5,29.89,West,260,0.0,7.0,78,0.00,,SCT030,0.00,VWS V14.01,2013-11-02 09:06:00,
2013-11-02 04:11:00,35.8,29.9,29.90,WNW,293,0.0,7.0,79,0.00,,SCT030,0.00,VWS V14.01,2013-11-02 09:11:00,
2013-11-02 04:16:00,36.0,29.8,29.90,West,278,0.0,7.0,78,0.00,,SCT030,0.00,VWS V14.01,2013-11-02 09:16:00,
2013-11-02 04:21:00,36.1,29.9,29.90,West,280,1.0,7.0,78,0.00,,SCT030,0.00,VWS V14.01,2013-11-02 09:21:00,
2013-11-02 04:26:00,36.2,30.3,29.91,WNW,297,0.0,7.0,79,0.00,,SCT030,0.00,VWS V14.01,2013-11-02 09:26:00,
2013-11-02 04:31:00,36.3,30.4,29.90,WNW,283,0.0,1.0,79,0.00,,SCT030,0.00,VWS V14.01,2013-11-02 09:31:00,
2013-11-02 04:36:00,36.4,30.5,29.91,WNW,287,0.0,2.0,79,0.00,,OVC032,0.00,VWS V14.01,2013-11-02 09:36:00,
2013-11-02 04:41:00,36.4,30.5,29.91,WNW,287,0.0,2.0,79,0.00,,OVC032,0.00,VWS V14.01,2013-11-02 09:41:00,
2013-11-02 04:46:00,36.5,30.6,29.91,WNW,290,1.0,2.0,79,0.00,,OVC032,0.00,VWS V14.01,2013-11-02 09:46:00,
2013-11-02 04:51:00,36.6,30.7,29.91,WNW,291,1.0,2.0,79,0.00,,OVC032,0.00,VWS V14.01,2013-11-02 09:51:00,
2013-11-02 04:56:00,36.7,30.8,29.91,West,280,0.0,2.0,79,0.00,,OVC032,0.00,VWS V14.01,2013-11-02 09:56:00,
2013-11-02 05:01:00,36.6,31.0,29.91,WNW,283,0.0,1.0,80,0.00,,OVC032,0.00,VWS V14.01,2013-11-02 10:01:00,
2013-11-02 05:06:00,36.6,31.0,29.92,WNW,292,0.0,2.0,80,0.00,,OVC032,0.00,VWS V14.01,2013-11-02 10:06:00,
2013-11-02 05:11:00,36.7,31.1,29.92,West,278,0.0,2.0,80,0.00,,OVC032,0.00,VWS V14.01,2013-11-02 10:11:00,
2013-11-02 05:16:00,36.6,31.3,29.92,WNW,285,0.0,2.0,81,0.00,,OVC032,0.00,VWS V14.01,2013-11-02 10:16:00,
2013-11-02 05:21:00,36.6,31.3,29.92,West,263,0.0,2.0,81,0.00,,OVC032,0.00,VWS V14.01,2013-11-02 10:21:00,
2013-11-02 05:26:00,36.6,31.6,29.92,West,268,0.0,2.0,82,0.00,,OVC032,0.00,VWS V14.01,2013-11-02 10:26:00,
2013-11-02 05:31:00,36.5,31.5,29.92,West,280,0.0,1.0,82,0.00,,OVC032,0.00,VWS V14.01,2013-11-02 10:31:00,
2013-11-02 05:36:00,36.5,31.8,29.93,West,267,1.0,2.0,83,0.00,,OVC036,0.00,VWS V14.01,2013-11-02 10:36:00,
2013-11-02 05:41:00,36.5,31.8,29.93,West,263,0.0,3.0,83,0.00,,OVC036,0.00,VWS V14.01,2013-11-02 10:41:00,
2013-11-02 05:46:00,36.5,32.1,29.93,West,276,0.0,3.0,84,0.00,,OVC036,0.00,VWS V14.01,2013-11-02 10:46:00,
2013-11-02 05:51:00,36.5,32.1,29.93,West,274,0.0,3.0,84,0.00,,OVC036,0.00,VWS V14.01,2013-11-02 10:51:00,
2013-11-02 05:56:00,36.4,32.0,29.93,West,281,0.0,3.0,84,0.00,,OVC036,0.00,VWS V14.01,2013-11-02 10:56:00,
2013-11-02 06:01:00,36.4,32.0,29.94,WNW,288,0.0,2.0,84,0.00,,OVC036,0.00,VWS V14.01,2013-11-02 11:01:00,
2013-11-02 06:06:00,36.4,32.3,29.94,WNW,283,0.0,2.0,85,0.00,,OVC036,0.00,VWS V14.01,2013-11-02 11:06:00,
2013-11-02 06:11:00,36.4,32.3,29.94,WNW,285,1.0,2.0,85,0.00,,OVC036,0.00,VWS V14.01,2013-11-02 11:11:00,
2013-11-02 06:16:00,36.4,32.3,29.95,WNW,303,0.0,2.0,85,0.00,,OVC036,0.00,VWS V14.01,2013-11-02 11:16:00,
2013-11-02 06:21:00,36.4,32.3,29.95,WNW,284,1.0,2.0,85,0.00,,OVC036,0.00,VWS V14.01,2013-11-02 11:21:00,
2013-11-02 06:26:00,36.4,32.3,29.95,West,278,0.0,2.0,85,0.00,,OVC036,0.00,VWS V14.01,2013-11-02 11:26:00,
2013-11-02 06:30:00,36.5,32.4,29.95,WSW,243,1.0,2.0,85,0.00,,OVC036,0.00,VWS V14.01,2013-11-02 11:30:00,
2013-11-02 06:35:00,36.5,32.1,29.95,WNW,283,0.0,2.0,84,0.00,,OVC034,0.00,VWS V14.01,2013-11-02 11:35:00,
2013-11-02 06:40:00,36.5,31.8,29.95,NW,319,0.0,2.0,83,0.00,,OVC034,0.00,VWS V14.01,2013-11-02 11:40:00,
2013-11-02 06:45:00,36.5,31.5,29.96,WNW,295,0.0,2.0,82,0.00,,OVC034,0.00,VWS V14.01,2013-11-02 11:45:00,
2013-11-02 06:50:00,36.6,31.3,29.96,WSW,250,0.0,2.0,81,0.00,,OVC036,0.00,VWS V14.01,2013-11-02 11:50:00,
2013-11-02 06:55:00,36.6,31.3,29.96,NNW,330,0.0,2.0,81,0.00,,OVC036,0.00,VWS V14.01,2013-11-02 11:55:00,
2013-11-02 07:00:00,36.6,31.0,29.96,WNW,298,0.0,2.0,80,0.00,,OVC036,0.00,VWS V14.01,2013-11-02 12:00:00,
2013-11-02 07:05:00,36.6,30.7,29.96,North,354,0.0,2.0,79,0.00,,OVC036,0.00,VWS V14.01,2013-11-02 12:05:00,
2013-11-02 07:10:00,36.5,30.6,29.96,NW,316,0.0,2.0,79,0.00,,OVC036,0.00,VWS V14.01,2013-11-02 12:10:00,
2013-11-02 07:15:00,36.5,30.6,29.96,NW,307,0.0,2.0,79,0.00,,OVC036,0.00,VWS V14.01,2013-11-02 12:15:00,
2013-11-02 07:20:00,36.4,30.5,29.97,NW,308,0.0,2.0,79,0.00,,OVC036,0.00,VWS V14.01,2013-11-02 12:20:00,
2013-11-02 07:25:00,36.3,30.1,29.97,WNW,303,0.0,2.0,78,0.00,,OVC036,0.00,VWS V14.01,2013-11-02 12:25:00,
2013-11-02 07:30:00,36.3,30.1,29.97,WNW,295,1.0,1.0,78,0.00,,OVC036,0.00,VWS V14.01,2013-11-02 12:30:00,
2013-11-02 07:35:00,36.2,30.0,29.97,WNW,298,0.0,2.0,78,0.00,,OVC040,0.00,VWS V14.01,2013-11-02 12:35:00,
2013-11-02 07:40:00,36.2,30.0,29.97,WNW,288,0.0,2.0,78,0.00,,OVC040,0.00,VWS V14.01,2013-11-02 12:40:00,
2013-11-02 07:45:00,36.1,30.2,29.97,NW,311,0.0,2.0,79,0.00,,OVC040,0.00,VWS V14.01,2013-11-02 12:45:00,
2013-11-02 07:50:00,36.0,30.1,29.98,North,6,0.0,2.0,79,0.00,,SCT080,0.00,VWS V14.01,2013-11-02 12:50:00,
2013-11-02 07:55:00,35.7,29.8,29.98,WNW,290,0.0,2.0,79,0.00,,SCT080,0.00,VWS V14.01,2013-11-02 12:55:00,
2013-11-02 08:00:00,35.4,29.9,29.98,WNW,283,0.0,1.0,80,0.00,,SCT080,0.00,VWS V14.01,2013-11-02 13:00:00,
2013-11-02 08:05:00,35.2,29.7,29.98,WNW,288,0.0,1.0,80,0.00,,SCT080,0.00,VWS V14.01,2013-11-02 13:05:00,
2013-11-02 08:10:00,34.8,29.6,29.99,West,272,0.0,1.0,81,0.00,,SCT080,0.00,VWS V14.01,2013-11-02 13:10:00,
2013-11-02 08:15:00,34.5,29.6,29.99,WNW,285,0.0,1.0,82,0.00,,SCT080,0.00,VWS V14.01,2013-11-02 13:15:00,
2013-11-02 08:20:00,34.2,29.6,29.99,WNW,285,0.0,1.0,83,0.00,,SCT080,0.00,VWS V14.01,2013-11-02 13:20:00,
2013-11-02 08:25:00,33.9,29.6,30.00,WNW,285,0.0,1.0,84,0.00,,SCT080,0.00,VWS V14.01,2013-11-02 13:25:00,
2013-11-02 08:30:00,33.6,29.6,30.00,WNW,300,0.0,1.0,85,0.00,,SCT080,0.00,VWS V14.01,2013-11-02 13:30:00,
2013-11-02 08:35:00,33.5,29.8,30.00,WNW,294,0.0,1.0,86,0.00,,CLR,0.00,VWS V14.01,2013-11-02 13:35:00,
2013-11-02 08:40:00,33.4,30.0,30.00,West,263,0.0,1.0,87,0.00,,CLR,0.00,VWS V14.01,2013-11-02 13:40:00,
2013-11-02 08:45:00,33.5,30.0,30.00,West,273,0.0,1.0,87,0.00,,CLR,0.00,VWS V14.01,2013-11-02 13:45:00,
2013-11-02 08:50:00,33.7,30.2,30.00,NNW,334,0.0,1.0,87,0.00,,CLR,0.00,VWS V14.01,2013-11-02 13:50:00,
2013-11-02 08:55:00,33.9,30.5,30.00,WNW,299,0.0,1.0,87,0.00,,CLR,0.00,VWS V14.01,2013-11-02 13:55:00,
2013-11-02 09:00:00,34.2,30.7,30.00,WNW,299,0.0,0.0,87,0.00,,CLR,0.00,VWS V14.01,2013-11-02 14:00:00,
2013-11-02 09:06:00,34.5,30.8,30.00,West,262,0.0,1.0,86,0.00,,CLR,0.00,VWS V14.01,2013-11-02 14:06:00,
2013-11-02 09:11:00,34.8,31.0,30.00,WNW,295,0.0,1.0,86,0.00,,CLR,0.00,VWS V14.01,2013-11-02 14:11:00,
2013-11-02 09:16:00,35.0,31.0,30.00,NE,43,0.0,2.0,85,0.00,,CLR,0.00,VWS V14.01,2013-11-02 14:16:00,
2013-11-02 09:21:00,35.3,31.2,30.01,West,270,0.0,2.0,85,0.00,,CLR,0.00,VWS V14.01,2013-11-02 14:21:00,
2013-11-02 09:26:00,35.5,31.5,30.01,WNW,284,0.0,2.0,85,0.00,,CLR,0.00,VWS V14.01,2013-11-02 14:26:00,
2013-11-02 09:31:00,35.7,31.4,30.01,WNW,298,1.0,2.0,84,0.00,,CLR,0.00,VWS V14.01,2013-11-02 14:31:00,
2013-11-02 09:36:00,36.0,31.6,30.01,WNW,302,0.0,2.0,84,0.00,,CLR,0.00,VWS V14.01,2013-11-02 14:36:00,
2013-11-02 09:41:00,36.2,31.5,30.01,WNW,302,2.0,2.0,83,0.00,,CLR,0.00,VWS V14.01,2013-11-02 14:41:00,
2013-11-02 09:46:00,36.5,31.8,30.01,West,270,1.0,2.0,83,0.00,,CLR,0.00,VWS V14.01,2013-11-02 14:46:00,
2013-11-02 09:51:00,36.8,32.1,30.01,WNW,294,0.0,2.0,83,0.00,,CLR,0.00,VWS V14.01,2013-11-02 14:51:00,
2013-11-02 09:56:00,37.1,32.1,30.02,West,276,0.0,2.0,82,0.00,,CLR,0.00,VWS V14.01,2013-11-02 14:56:00,
2013-11-02 10:01:00,37.3,32.3,30.02,ENE,58,1.0,2.0,82,0.00,,CLR,0.00,VWS V14.01,2013-11-02 15:01:00,
2013-11-02 10:06:00,37.6,32.6,30.02,West,275,1.0,2.0,82,0.00,,CLR,0.00,VWS V14.01,2013-11-02 15:06:00,
2013-11-02 10:11:00,37.8,32.5,30.02,NNW,345,0.0,4.0,81,0.00,,CLR,0.00,VWS V14.01,2013-11-02 15:11:00,
2013-11-02 10:16:00,38.0,32.7,30.02,WNW,295,0.0,4.0,81,0.00,,CLR,0.00,VWS V14.01,2013-11-02 15:16:00,
2013-11-02 10:21:00,38.3,33.0,30.03,West,276,1.0,4.0,81,0.00,,CLR,0.00,VWS V14.01,2013-11-02 15:21:00,
2013-11-02 10:26:00,38.5,32.9,30.03,WNW,285,0.0,4.0,80,0.00,,CLR,0.00,VWS V14.01,2013-11-02 15:26:00,
2013-11-02 10:31:00,38.8,33.5,30.03,West,281,0.0,2.0,81,0.00,,CLR,0.00,VWS V14.01,2013-11-02 15:31:00,
2013-11-02 10:36:00,38.9,33.0,30.03,NW,305,3.0,3.0,79,0.00,,CLR,0.00,VWS V14.01,2013-11-02 15:36:00,
2013-11-02 10:41:00,38.9,33.0,30.03,NW,321,2.0,3.0,79,0.00,,CLR,0.00,VWS V14.01,2013-11-02 15:41:00,
2013-11-02 10:46:00,39.1,33.5,30.03,WNW,285,0.0,4.0,80,0.00,,CLR,0.00,VWS V14.01,2013-11-02 15:46:00,
2013-11-02 10:51:00,39.4,33.4,30.03,WNW,290,0.0,4.0,79,0.00,,CLR,0.00,VWS V14.01,2013-11-02 15:51:00,
2013-11-02 10:56:00,39.6,33.3,30.03,West,270,3.0,4.0,78,0.00,,CLR,0.00,VWS V14.01,2013-11-02 15:56:00,
2013-11-02 11:01:00,39.6,33.0,30.04,WNW,283,0.0,1.0,77,0.00,,CLR,0.00,VWS V14.01,2013-11-02 16:01:00,
2013-11-02 11:06:00,40.0,33.4,30.04,WSW,257,0.0,3.0,77,0.00,,CLR,0.00,VWS V14.01,2013-11-02 16:06:00,
2013-11-02 11:11:00,40.3,33.7,30.04,NW,304,0.0,3.0,77,0.00,,CLR,0.00,VWS V14.01,2013-11-02 16:11:00,
2013-11-02 11:16:00,40.5,33.5,30.04,WNW,303,1.0,4.0,76,0.00,,CLR,0.00,VWS V14.01,2013-11-02 16:16:00,
2013-11-02 11:21:00,40.7,33.7,30.04,NW,318,0.0,4.0,76,0.00,,CLR,0.00,VWS V14.01,2013-11-02 16:21:00,
2013-11-02 11:26:00,40.9,33.9,30.04,ESE,123,0.0,4.0,76,0.00,,CLR,0.00,VWS V14.01,2013-11-02 16:26:00,
2013-11-02 11:31:00,41.1,33.5,30.04,WNW,286,0.0,2.0,74,0.00,,CLR,0.00,VWS V14.01,2013-11-02 16:31:00,
2013-11-02 11:36:00,41.1,33.5,30.04,NW,316,2.0,4.0,74,0.00,,CLR,0.00,VWS V14.01,2013-11-02 16:36:00,
2013-11-02 11:41:00,41.2,33.5,30.04,WNW,288,1.0,5.0,74,0.00,,CLR,0.00,VWS V14.01,2013-11-02 16:41:00,
2013-11-02 11:46:00,41.5,33.8,30.04,NW,314,3.0,5.0,74,0.00,,CLR,0.00,VWS V14.01,2013-11-02 16:46:00,
2013-11-02 11:51:00,41.9,33.5,30.04,NW,325,0.0,5.0,72,0.00,,CLR,0.00,VWS V14.01,2013-11-02 16:51:00,
2013-11-02 11:56:00,42.4,34.0,30.05,West,269,4.0,5.0,72,0.00,,CLR,0.00,VWS V14.01,2013-11-02 16:56:00,
2013-11-02 12:01:00,42.4,33.7,30.05,WNW,286,2.0,5.0,71,0.00,,CLR,0.00,VWS V14.01,2013-11-02 17:01:00,
2013-11-02 12:06:00,42.3,33.9,30.05,WNW,299,2.0,5.0,72,0.00,,CLR,0.00,VWS V14.01,2013-11-02 17:06:00,
2013-11-02 12:10:00,42.4,33.7,30.05,West,276,2.0,5.0,71,0.00,,CLR,0.00,VWS V14.01,2013-11-02 17:10:00,
2013-11-02 12:15:00,42.4,33.7,30.05,NW,308,2.0,5.0,71,0.00,,CLR,0.00,VWS V14.01,2013-11-02 17:15:00,
2013-11-02 12:20:00,43.1,33.6,30.05,West,263,0.0,5.0,69,0.00,,CLR,0.00,VWS V14.01,2013-11-02 17:20:00,
2013-11-02 12:25:00,43.4,33.6,30.05,West,278,2.0,5.0,68,0.00,,CLR,0.00,VWS V14.01,2013-11-02 17:25:00,
2013-11-02 12:30:00,43.5,33.3,30.05,West,269,2.0,4.0,67,0.00,,CLR,0.00,VWS V14.01,2013-11-02 17:30:00,
2013-11-02 12:35:00,43.5,32.9,30.05,NW,305,1.0,4.0,66,0.00,,CLR,0.00,VWS V14.01,2013-11-02 17:35:00,
2013-11-02 12:40:00,43.9,33.7,30.05,SW,229,1.0,4.0,67,0.00,,CLR,0.00,VWS V14.01,2013-11-02 17:40:00,
2013-11-02 12:45:00,44.1,33.5,30.05,West,269,3.0,4.0,66,0.00,,CLR,0.00,VWS V14.01,2013-11-02 17:45:00,
2013-11-02 12:50:00,44.5,33.9,30.05,WNW,290,1.0,4.0,66,0.00,,SCT100,0.00,VWS V14.01,2013-11-02 17:50:00,
2013-11-02 12:55:00,44.7,33.3,30.05,NNW,330,3.0,4.0,64,0.00,,SCT100,0.00,VWS V14.01,2013-11-02 17:55:00,
2013-11-02 13:00:00,44.2,32.8,30.05,WNW,293,1.0,5.0,64,0.00,,SCT100,0.00,VWS V14.01,2013-11-02 18:00:00,
2013-11-02 13:05:00,44.3,33.7,30.05,NNW,330,0.0,5.0,66,0.00,,SCT100,0.00,VWS V14.01,2013-11-02 18:05:00,
2013-11-02 13:10:00,44.9,32.7,30.05,WNW,293,1.0,5.0,62,0.00,,SCT100,0.00,VWS V14.01,2013-11-02 18:10:00,
2013-11-02 13:15:00,45.0,32.4,30.05,West,276,2.0,5.0,61,0.00,,SCT100,0.00,VWS V14.01,2013-11-02 18:15:00,
2013-11-02 13:20:00,45.2,33.4,30.05,WNW,284,3.0,6.0,63,0.00,,SCT080,0.00,VWS V14.01,2013-11-02 18:20:00,
2013-11-02 13:25:00,45.2,33.0,30.04,West,263,2.0,6.0,62,0.00,,SCT080,0.00,VWS V14.01,2013-11-02 18:25:00,
2013-11-02 13:30:00,45.6,33.3,30.04,NE,34,2.0,6.0,62,0.00,,SCT080,0.00,VWS V14.01,2013-11-02 18:30:00,
2013-11-02 13:35:00,45.7,33.4,30.04,West,281,1.0,6.0,62,0.00,,SCT100,0.00,VWS V14.01,2013-11-02 18:35:00,
2013-11-02 13:40:00,45.7,33.0,30.04,NW,325,0.0,7.0,61,0.00,,SCT100,0.00,VWS V14.01,2013-11-02 18:40:00,
2013-11-02 13:45:00,45.9,32.8,30.03,West,273,1.0,7.0,60,0.00,,SCT100,0.00,VWS V14.01,2013-11-02 18:45:00,
2013-11-02 13:50:00,46.0,32.9,30.03,NE,49,4.0,7.0,60,0.00,,CLR,0.00,VWS V14.01,2013-11-02 18:50:00,
2013-11-02 13:55:00,46.1,33.0,30.03,WNW,299,3.0,7.0,60,0.00,,CLR,0.00,VWS V14.01,2013-11-02 18:55:00,
2013-11-02 14:00:00,46.4,33.3,30.03,NW,305,2.0,4.0,60,0.00,,CLR,0.00,VWS V14.01,2013-11-02 19:00:00,
2013-11-02 14:05:00,46.8,33.7,30.04,NW,321,0.0,4.0,60,0.00,,CLR,0.00,VWS V14.01,2013-11-02 19:05:00,
2013-11-02 14:10:00,46.8,33.7,30.03,WNW,294,1.0,4.0,60,0.00,,CLR,0.00,VWS V14.01,2013-11-02 19:10:00,
2013-11-02 14:15:00,47.1,33.1,30.03,WNW,295,1.0,4.0,58,0.00,,CLR,0.00,VWS V14.01,2013-11-02 19:15:00,
2013-11-02 14:20:00,47.1,33.1,30.03,NW,312,0.0,4.0,58,0.00,,CLR,0.00,VWS V14.01,2013-11-02 19:20:00,
2013-11-02 14:25:00,47.4,33.4,30.04,West,271,2.0,4.0,58,0.00,,CLR,0.00,VWS V14.01,2013-11-02 19:25:00,
2013-11-02 14:30:00,46.9,32.5,30.04,West,269,3.0,5.0,57,0.00,,CLR,0.00,VWS V14.01,2013-11-02 19:30:00,
2013-11-02 14:35:00,46.9,33.3,30.04,West,277,1.0,5.0,59,0.00,,CLR,0.00,VWS V14.01,2013-11-02 19:35:00,
2013-11-02 14:40:00,46.8,33.2,30.03,NW,321,2.0,5.0,59,0.00,,CLR,0.00,VWS V14.01,2013-11-02 19:40:00,
2013-11-02 14:45:00,47.2,33.2,30.03,West,281,3.0,5.0,58,0.00,,CLR,0.00,VWS V14.01,2013-11-02 19:45:00,
2013-11-02 14:50:00,47.2,33.2,30.03,NNW,340,2.0,5.0,58,0.00,,SCT100,0.00,VWS V14.01,2013-11-02 19:50:00,
2013-11-02 14:55:00,47.3,33.3,30.03,West,281,1.0,5.0,58,0.00,,SCT100,0.00,VWS V14.01,2013-11-02 19:55:00,
2013-11-02 15:00:00,47.5,33.5,30.03,NW,316,2.0,4.0,58,0.00,,SCT100,0.00,VWS V14.01,2013-11-02 20:00:00,
2013-11-02 15:05:00,47.9,33.4,30.03,NW,319,1.0,4.0,57,0.00,,SCT100,0.00,VWS V14.01,2013-11-02 20:05:00,
2013-11-02 15:10:00,48.4,33.4,30.03,NW,321,1.0,4.0,56,0.00,,SCT100,0.00,VWS V14.01,2013-11-02 20:10:00,
2013-11-02 15:15:00,48.5,34.0,30.03,NW,304,1.0,4.0,57,0.00,,SCT100,0.00,VWS V14.01,2013-11-02 20:15:00,
2013-11-02 15:20:00,48.5,33.5,30.03,WNW,287,1.0,4.0,56,0.00,,SCT100,0.00,VWS V14.01,2013-11-02 20:20:00,
2013-11-02 15:25:00,48.4,33.0,30.04,West,277,2.0,4.0,55,0.00,,SCT100,0.00,VWS V14.01,2013-11-02 20:25:00,
2013-11-02 15:30:00,48.3,32.4,30.04,WNW,293,2.0,5.0,54,0.00,,SCT100,0.00,VWS V14.01,2013-11-02 20:30:00,
2013-11-02 15:35:00,48.4,32.5,30.04,West,270,3.0,5.0,54,0.00,,SCT120,0.00,VWS V14.01,2013-11-02 20:35:00,
2013-11-02 15:40:00,48.2,32.3,30.04,WNW,295,3.0,5.0,54,0.00,,SCT120,0.00,VWS V14.01,2013-11-02 20:40:00,
2013-11-02 15:45:00,48.1,32.7,30.04,NW,311,1.0,5.0,55,0.00,,SCT120,0.00,VWS V14.01,2013-11-02 20:45:00,
2013-11-02 15:50:00,48.1,31.8,30.03,West,271,4.0,5.0,53,0.00,,SCT100,0.00,VWS V14.01,2013-11-02 20:50:00,
2013-11-02 15:55:00,48.0,32.2,30.04,NNW,330,0.0,5.0,54,0.00,,SCT100,0.00,VWS V14.01,2013-11-02 20:55:00,
2013-11-02 16:00:00,48.1,32.3,30.04,North,360,1.0,2.0,54,0.00,,SCT100,0.00,VWS V14.01,2013-11-02 21:00:00,
2013-11-02 16:05:00,48.3,32.4,30.04,NW,306,2.0,3.0,54,0.00,,SCT100,0.00,VWS V14.01,2013-11-02 21:05:00,
2013-11-02 16:10:00,48.5,32.2,30.04,West,269,3.0,4.0,53,0.00,,SCT100,0.00,VWS V14.01,2013-11-02 21:10:00,
2013-11-02 16:15:00,48.5,31.7,30.04,West,273,1.0,4.0,52,0.00,,SCT100,0.00,VWS V14.01,2013-11-02 21:15:00,
2013-11-02 16:20:00,48.7,31.9,30.05,SW,224,1.0,4.0,52,0.00,,SCT100,0.00,VWS V14.01,2013-11-02 21:20:00,
2013-11-02 16:25:00,48.5,32.2,30.05,WNW,299,0.0,4.0,53,0.00,,SCT100,0.00,VWS V14.01,2013-11-02 21:25:00,
2013-11-02 16:30:00,48.5,31.2,30.05,West,278,1.0,3.0,51,0.00,,SCT100,0.00,VWS V14.01,2013-11-02 21:30:00,
2013-11-02 16:35:00,48.5,32.2,30.05,WNW,294,1.0,4.0,53,0.00,,SCT100,0.00,VWS V14.01,2013-11-02 21:35:00,
2013-11-02 16:40:00,48.8,32.0,30.05,West,278,2.0,4.0,52,0.00,,SCT100,0.00,VWS V14.01,2013-11-02 21:40:00,
2013-11-02 16:45:00,48.9,31.6,30.04,West,280,2.0,4.0,51,0.00,,SCT100,0.00,VWS V14.01,2013-11-02 21:45:00,
2013-11-02 16:50:00,48.7,31.9,30.05,WNW,282,1.0,4.0,52,0.00,,SCT110,0.00,VWS V14.01,2013-11-02 21:50:00,
2013-11-02 16:55:00,48.5,31.7,30.05,West,270,1.0,4.0,52,0.00,,SCT110,0.00,VWS V14.01,2013-11-02 21:55:00,
2013-11-02 17:00:00,48.3,31.5,30.05,West,277,3.0,3.0,52,0.00,,SCT110,0.00,VWS V14.01,2013-11-02 22:00:00,
2013-11-02 17:05:00,48.4,32.1,30.05,West,280,1.0,3.0,53,0.00,,SCT110,0.00,VWS V14.01,2013-11-02 22:05:00,
2013-11-02 17:10:00,48.4,31.6,30.05,WNW,293,0.0,3.0,52,0.00,,SCT110,0.00,VWS V14.01,2013-11-02 22:10:00,
2013-11-02 17:15:00,48.7,31.9,30.05,West,278,0.0,3.0,52,0.00,,SCT110,0.00,VWS V14.01,2013-11-02 22:15:00,
2013-11-02 17:20:00,48.6,31.8,30.05,West,271,0.0,3.0,52,0.00,,SCT110,0.00,VWS V14.01,2013-11-02 22:20:00,
2013-11-02 17:25:00,48.0,31.7,30.05,West,274,0.0,3.0,53,0.00,,SCT110,0.00,VWS V14.01,2013-11-02 22:25:00,
2013-11-02 17:30:00,47.4,31.6,30.05,West,262,0.0,1.0,54,0.00,,SCT110,0.00,VWS V14.01,2013-11-02 22:30:00,
2013-11-02 17:35:00,47.0,31.7,30.05,West,270,0.0,2.0,55,0.00,,SCT100,0.00,VWS V14.01,2013-11-02 22:35:00,
2013-11-02 17:40:00,46.5,31.2,30.05,West,270,1.0,2.0,55,0.00,,SCT100,0.00,VWS V14.01,2013-11-02 22:40:00,
2013-11-02 17:45:00,46.2,31.4,30.05,West,267,1.0,2.0,56,0.00,,SCT100,0.00,VWS V14.01,2013-11-02 22:45:00,
2013-11-02 17:50:00,45.8,31.0,30.05,West,266,0.0,2.0,56,0.00,,SCT100,0.00,VWS V14.01,2013-11-02 22:50:00,
2013-11-02 17:55:00,45.4,31.1,30.06,West,269,0.0,2.0,57,0.00,,SCT100,0.00,VWS V14.01,2013-11-02 22:55:00,
2013-11-02 18:00:00,44.9,31.0,30.06,West,267,1.0,1.0,58,0.00,,SCT100,0.00,VWS V14.01,2013-11-02 23:00:00,
2013-11-02 18:05:00,44.5,31.1,30.06,West,267,0.0,1.0,59,0.00,,SCT100,0.00,VWS V14.01,2013-11-02 23:05:00,
2013-11-02 18:10:00,44.1,31.1,30.06,West,267,0.0,1.0,60,0.00,,SCT100,0.00,VWS V14.01,2013-11-02 23:10:00,
2013-11-02 18:15:00,43.6,31.0,30.06,West,267,0.0,1.0,61,0.00,,SCT100,0.00,VWS V14.01,2013-11-02 23:15:00,
2013-11-02 18:20:00,43.0,30.9,30.06,West,267,0.0,1.0,62,0.00,,SCT100,0.00,VWS V14.01,2013-11-02 23:20:00,
2013-11-02 18:25:00,42.5,30.8,30.06,West,267,0.0,1.0,63,0.00,,SCT100,0.00,VWS V14.01,2013-11-02 23:25:00,
2013-11-02 18:30:00,42.1,30.8,30.06,West,267,0.0,0.0,64,0.00,,SCT100,0.00,VWS V14.01,2013-11-02 23:30:00,
2013-11-02 18:35:00,41.6,30.7,30.06,West,267,0.0,0.0,65,0.00,,SCT110,0.00,VWS V14.01,2013-11-02 23:35:00,
2013-11-02 18:40:00,41.2,30.7,30.06,West,267,0.0,0.0,66,0.00,,SCT110,0.00,VWS V14.01,2013-11-02 23:40:00,
2013-11-02 18:45:00,40.7,30.2,30.06,West,267,0.0,0.0,66,0.00,,SCT110,0.00,VWS V14.01,2013-11-02 23:45:00,
2013-11-02 18:50:00,39.9,30.2,30.06,West,267,0.0,0.0,68,0.00,,SCT110,0.00,VWS V14.01,2013-11-02 23:50:00,
2013-11-02 18:55:00,39.5,30.5,30.06,West,267,0.0,0.0,70,0.00,,SCT110,0.00,VWS V14.01,2013-11-02 23:55:00,
2013-11-02 19:00:00,39.1,30.2,30.06,West,267,0.0,0.0,70,0.00,,SCT110,0.00,VWS V14.01,2013-11-03 00:00:00,
2013-11-02 19:05:00,38.5,29.9,30.07,West,267,0.0,0.0,71,0.00,,CLR,0.00,VWS V14.01,2013-11-03 00:05:00,
2013-11-02 19:10:00,38.0,30.1,30.06,West,267,0.0,0.0,73,0.00,,CLR,0.00,VWS V14.01,2013-11-03 00:10:00,
2013-11-02 19:15:00,38.1,30.6,30.07,West,267,0.0,0.0,74,0.00,,CLR,0.00,VWS V14.01,2013-11-03 00:15:00,
2013-11-02 19:20:00,38.2,30.7,30.07,West,267,0.0,0.0,74,0.00,,CLR,0.00,VWS V14.01,2013-11-03 00:20:00,
2013-11-02 19:25:00,38.3,30.8,30.06,West,267,0.0,0.0,74,0.00,,CLR,0.00,VWS V14.01,2013-11-03 00:25:00,
2013-11-02 19:30:00,38.6,31.0,30.06,West,267,0.0,0.0,74,0.00,,CLR,0.00,VWS V14.01,2013-11-03 00:30:00,
2013-11-02 19:35:00,38.6,30.7,30.06,West,267,0.0,0.0,73,0.00,,SCT110,0.00,VWS V14.01,2013-11-03 00:35:00,
2013-11-02 19:40:00,38.7,30.8,30.06,West,267,0.0,0.0,73,0.00,,SCT110,0.00,VWS V14.01,2013-11-03 00:40:00,
2013-11-02 19:45:00,38.6,30.4,30.06,West,267,0.0,0.0,72,0.00,,SCT110,0.00,VWS V14.01,2013-11-03 00:45:00,
2013-11-02 19:50:00,38.5,30.6,30.07,West,267,0.0,0.0,73,0.00,,CLR,0.00,VWS V14.01,2013-11-03 00:50:00,
2013-11-02 19:55:00,38.3,30.4,30.07,West,267,0.0,0.0,73,0.00,,CLR,0.00,VWS V14.01,2013-11-03 00:55:00,
2013-11-02 20:00:00,37.9,30.4,30.07,West,267,0.0,0.0,74,0.00,,CLR,0.00,VWS V14.01,2013-11-03 01:00:00,
2013-11-02 20:05:00,37.4,30.2,30.07,West,267,0.0,0.0,75,0.00,,CLR,0.00,VWS V14.01,2013-11-03 01:05:00,
2013-11-02 20:10:00,37.3,30.8,30.07,West,267,0.0,0.0,77,0.00,,CLR,0.00,VWS V14.01,2013-11-03 01:10:00,
2013-11-02 20:15:00,37.1,30.6,30.07,West,267,0.0,0.0,77,0.00,,CLR,0.00,VWS V14.01,2013-11-03 01:15:00,
2013-11-02 20:20:00,36.8,30.3,30.07,West,267,0.0,0.0,77,0.00,,CLR,0.00,VWS V14.01,2013-11-03 01:20:00,
2013-11-02 20:25:00,36.8,30.6,30.07,West,267,0.0,0.0,78,0.00,,CLR,0.00,VWS V14.01,2013-11-03 01:25:00,
2013-11-02 20:30:00,36.6,30.4,30.07,West,267,0.0,0.0,78,0.00,,CLR,0.00,VWS V14.01,2013-11-03 01:30:00,
2013-11-02 20:35:00,36.5,30.3,30.07,West,267,0.0,0.0,78,0.00,,CLR,0.00,VWS V14.01,2013-11-03 01:35:00,
2013-11-02 20:40:00,36.3,30.1,30.07,West,267,0.0,0.0,78,0.00,,CLR,0.00,VWS V14.01,2013-11-03 01:40:00,
2013-11-02 20:45:00,36.2,30.3,30.07,West,267,0.0,0.0,79,0.00,,CLR,0.00,VWS V14.01,2013-11-03 01:45:00,
2013-11-02 20:50:00,35.9,30.0,30.07,West,267,0.0,0.0,79,0.00,,CLR,0.00,VWS V14.01,2013-11-03 01:50:00,
2013-11-02 20:55:00,35.6,29.7,30.07,West,267,0.0,0.0,79,0.00,,CLR,0.00,VWS V14.01,2013-11-03 01:55:00,
2013-11-02 21:00:00,35.6,30.0,30.07,West,267,0.0,0.0,80,0.00,,CLR,0.00,VWS V14.01,2013-11-03 02:00:00,
2013-11-02 21:05:00,35.5,30.0,30.07,West,267,0.0,0.0,80,0.00,,CLR,0.00,VWS V14.01,2013-11-03 02:05:00,
2013-11-02 21:10:00,35.2,29.7,30.07,West,267,0.0,0.0,80,0.00,,CLR,0.00,VWS V14.01,2013-11-03 02:10:00,
2013-11-02 21:15:00,35.1,29.6,30.07,West,267,0.0,0.0,80,0.00,,CLR,0.00,VWS V14.01,2013-11-03 02:15:00,
2013-11-02 21:20:00,34.9,29.7,30.07,West,267,0.0,0.0,81,0.00,,CLR,0.00,VWS V14.01,2013-11-03 02:20:00,
2013-11-02 21:25:00,34.7,29.5,30.07,West,267,0.0,0.0,81,0.00,,CLR,0.00,VWS V14.01,2013-11-03 02:25:00,
2013-11-02 21:30:00,34.4,29.2,30.07,West,267,0.0,0.0,81,0.00,,CLR,0.00,VWS V14.01,2013-11-03 02:30:00,
2013-11-02 21:35:00,34.1,29.2,30.07,West,267,0.0,0.0,82,0.00,,CLR,0.00,VWS V14.01,2013-11-03 02:35:00,
2013-11-02 21:40:00,34.2,29.6,30.08,West,267,0.0,0.0,83,0.00,,CLR,0.00,VWS V14.01,2013-11-03 02:40:00,
2013-11-02 21:45:00,34.4,29.8,30.08,West,267,0.0,0.0,83,0.00,,CLR,0.00,VWS V14.01,2013-11-03 02:45:00,
2013-11-02 21:50:00,34.3,29.4,30.08,West,268,0.0,0.0,82,0.00,,CLR,0.00,VWS V14.01,2013-11-03 02:50:00,
2013-11-02 21:55:00,34.0,29.1,30.08,West,267,0.0,0.0,82,0.00,,CLR,0.00,VWS V14.01,2013-11-03 02:55:00,
2013-11-02 22:00:00,34.0,29.4,30.08,West,267,0.0,0.0,83,0.00,,CLR,0.00,VWS V14.01,2013-11-03 03:00:00,
2013-11-02 22:05:00,34.0,29.4,30.08,West,267,0.0,0.0,83,0.00,,CLR,0.00,VWS V14.01,2013-11-03 03:05:00,
2013-11-02 22:10:00,33.9,29.3,30.08,West,267,0.0,0.0,83,0.00,,CLR,0.00,VWS V14.01,2013-11-03 03:10:00,
2013-11-02 22:15:00,33.6,29.0,30.08,West,267,0.0,0.0,83,0.00,,CLR,0.00,VWS V14.01,2013-11-03 03:15:00,
2013-11-02 22:20:00,33.3,28.7,30.08,West,267,0.0,0.0,83,0.00,,CLR,0.00,VWS V14.01,2013-11-03 03:20:00,
2013-11-02 22:25:00,33.0,28.4,30.09,West,267,0.0,0.0,83,0.00,,CLR,0.00,VWS V14.01,2013-11-03 03:25:00,
2013-11-02 22:30:00,32.8,28.8,30.09,West,267,0.0,0.0,85,0.00,,CLR,0.00,VWS V14.01,2013-11-03 03:30:00,
2013-11-02 22:35:00,32.9,28.9,30.09,West,267,0.0,0.0,85,0.00,,CLR,0.00,VWS V14.01,2013-11-03 03:35:00,
2013-11-02 22:40:00,32.8,28.8,30.09,West,267,0.0,0.0,85,0.00,,CLR,0.00,VWS V14.01,2013-11-03 03:40:00,
2013-11-02 22:45:00,32.6,28.9,30.09,West,267,0.0,0.0,86,0.00,,CLR,0.00,VWS V14.01,2013-11-03 03:45:00,
2013-11-02 22:50:00,32.5,28.8,30.09,West,267,0.0,0.0,86,0.00,,CLR,0.00,VWS V14.01,2013-11-03 03:50:00,
2013-11-02 22:55:00,32.8,29.1,30.09,West,267,0.0,0.0,86,0.00,,CLR,0.00,VWS V14.01,2013-11-03 03:55:00,
2013-11-02 23:00:00,32.9,29.2,30.09,West,267,0.0,0.0,86,0.00,,CLR,0.00,VWS V14.01,2013-11-03 04:00:00,
2013-11-02 23:01:00,32.9,29.2,30.09,West,267,0.0,0.0,86,0.00,,CLR,0.00,VWS V14.01,2013-11-03 04:01:00,
2013-11-02 23:06:00,32.8,29.1,30.09,West,267,0.0,0.0,86,0.00,,CLR,0.00,VWS V14.01,2013-11-03 04:06:00,
2013-11-02 23:11:00,33.1,29.4,30.09,East,101,0.0,1.0,86,0.00,,CLR,0.00,VWS V14.01,2013-11-03 04:11:00,
2013-11-02 23:16:00,33.5,29.8,30.09,ESE,102,0.0,1.0,86,0.00,,CLR,0.00,VWS V14.01,2013-11-03 04:16:00,
2013-11-02 23:21:00,33.6,29.6,30.09,ESE,102,0.0,1.0,85,0.00,,CLR,0.00,VWS V14.01,2013-11-03 04:21:00,
2013-11-02 23:26:00,33.7,30.0,30.09,ESE,102,0.0,1.0,86,0.00,,CLR,0.00,VWS V14.01,2013-11-03 04:26:00,
2013-11-02 23:31:00,33.7,29.7,30.09,ESE,102,0.0,1.0,85,0.00,,CLR,0.00,VWS V14.01,2013-11-03 04:31:00,
2013-11-02 23:36:00,33.7,29.7,30.09,ESE,102,0.0,1.0,85,0.00,,CLR,0.00,VWS V14.01,2013-11-03 04:36:00,
2013-11-02 23:41:00,33.7,29.7,30.09,ESE,105,0.0,1.0,85,0.00,,CLR,0.00,VWS V14.01,2013-11-03 04:41:00,
2013-11-02 23:46:00,33.5,29.5,30.09,ESE,105,0.0,1.0,85,0.00,,CLR,0.00,VWS V14.01,2013-11-03 04:46:00,
2013-11-02 23:51:00,33.2,29.5,30.09,ESE,106,0.0,1.0,86,0.00,,CLR,0.00,VWS V14.01,2013-11-03 04:51:00,
2013-11-02 23:56:00,32.9,29.2,30.09,ESE,105,0.0,1.0,86,0.00,,CLR,0.00,VWS V14.01,2013-11-03 04:56:00,